TimeEST,TemperatureF,Dew PointF,Humidity,Sea Level PressureIn,VisibilityMPH,Wind Direction,Wind SpeedMPH,Gust SpeedMPH,PrecipitationIn,Events,Conditions,WindDirDegrees,DateUTC
12:15 AM,21.2,21.2,100,30.18,10.0,Calm,Calm,-,N/A,,Clear,0,2013-01-04 05:15:00
12:35 AM,21.2,19.4,93,30.18,10.0,Calm,Calm,-,N/A,,Clear,0,2013-01-04 05:35:00
12:55 AM,19.4,19.4,100,30.18,10.0,Calm,Calm,-,N/A,,Clear,0,2013-01-04 05:55:00
1:15 AM,21.2,21.2,100,30.18,10.0,Calm,Calm,-,N/A,,Clear,0,2013-01-04 06:15:00
1:35 AM,21.2,19.4,93,30.18,10.0,Calm,Calm,-,N/A,,Clear,0,2013-01-04 06:35:00
1:55 AM,19.4,19.4,100,30.18,10.0,Calm,Calm,-,N/A,,Clear,0,2013-01-04 06:55:00
2:15 AM,19.4,19.4,100,30.19,10.0,Calm,Calm,-,N/A,,Clear,0,2013-01-04 07:15:00
2:35 AM,19.4,19.4,100,30.20,10.0,Calm,Calm,-,N/A,,Clear,0,2013-01-04 07:35:00
2:55 AM,19.4,19.4,100,30.20,10.0,Calm,Calm,-,N/A,,Clear,0,2013-01-04 07:55:00
3:15 AM,19.4,19.4,100,30.21,10.0,Calm,Calm,-,N/A,,Clear,0,2013-01-04 08:15:00
3:35 AM,19.4,19.4,100,30.20,10.0,Calm,Calm,-,N/A,,Clear,0,2013-01-04 08:35:00
3:55 AM,19.4,19.4,100,30.20,10.0,Calm,Calm,-,N/A,,Clear,0,2013-01-04 08:55:00
4:15 AM,17.6,17.6,100,30.21,10.0,Calm,Calm,-,N/A,,Clear,0,2013-01-04 09:15:00
6:55 AM,17.6,17.6,100,30.21,10.0,Calm,Calm,-,N/A,,Clear,0,2013-01-04 11:55:00
7:15 AM,17.6,17.6,100,30.22,10.0,Calm,Calm,-,N/A,,Clear,0,2013-01-04 12:15:00
7:35 AM,17.6,17.6,100,30.21,10.0,Calm,Calm,-,N/A,,Clear,0,2013-01-04 12:35:00
8:15 AM,19.4,19.4,100,30.22,10.0,Calm,Calm,-,N/A,,Clear,0,2013-01-04 13:15:00
8:35 AM,23.0,21.2,93,30.21,7.0,Calm,Calm,-,N/A,,Clear,0,2013-01-04 13:35:00
8:55 AM,26.6,24.8,93,30.22,10.0,Calm,Calm,-,N/A,,Clear,0,2013-01-04 13:55:00
9:15 AM,28.4,26.6,93,30.22,10.0,Calm,Calm,-,N/A,,Clear,0,2013-01-04 14:15:00
9:35 AM,32.0,26.6,80,30.22,10.0,Calm,Calm,-,N/A,,Clear,0,2013-01-04 14:35:00
9:55 AM,35.6,26.6,70,30.23,10.0,WSW,4.6,-,N/A,,Clear,250,2013-01-04 14:55:00
10:15 AM,37.4,24.8,60,30.23,10.0,SW,8.1,-,N/A,,Clear,220,2013-01-04 15:15:00
10:35 AM,37.4,24.8,60,30.23,10.0,WSW,8.1,-,N/A,,Clear,250,2013-01-04 15:35:00
10:55 AM,39.2,24.8,56,30.22,10.0,SW,8.1,-,N/A,,Clear,230,2013-01-04 15:55:00
11:15 AM,41.0,21.2,45,30.21,10.0,West,6.9,-,N/A,,Clear,270,2013-01-04 16:15:00
11:35 AM,41.0,21.2,45,30.20,10.0,Calm,Calm,-,N/A,,Clear,0,2013-01-04 16:35:00
11:55 AM,42.8,21.2,42,30.19,10.0,West,4.6,-,N/A,,Clear,270,2013-01-04 16:55:00
12:15 PM,42.8,21.2,42,30.18,10.0,Calm,Calm,-,N/A,,Clear,0,2013-01-04 17:15:00
12:35 PM,42.8,21.2,42,30.17,10.0,West,4.6,-,N/A,,Clear,260,2013-01-04 17:35:00
12:55 PM,44.6,21.2,39,30.16,10.0,West,6.9,-,N/A,,Clear,260,2013-01-04 17:55:00
1:15 PM,44.6,21.2,39,30.15,10.0,WNW,5.8,-,N/A,,Clear,290,2013-01-04 18:15:00
1:35 PM,44.6,19.4,37,30.15,10.0,SW,5.8,-,N/A,,Clear,220,2013-01-04 18:35:00
1:55 PM,44.6,19.4,37,30.15,10.0,SW,4.6,-,N/A,,Clear,230,2013-01-04 18:55:00
2:15 PM,46.4,19.4,34,30.13,10.0,West,8.1,-,N/A,,Clear,260,2013-01-04 19:15:00
2:35 PM,46.4,19.4,34,30.13,10.0,Calm,Calm,-,N/A,,Clear,0,2013-01-04 19:35:00
2:55 PM,46.4,19.4,34,30.12,10.0,WNW,5.8,-,N/A,,Clear,300,2013-01-04 19:55:00
3:15 PM,46.4,17.6,32,30.12,10.0,WSW,4.6,-,N/A,,Clear,250,2013-01-04 20:15:00
3:35 PM,46.4,19.4,34,30.13,10.0,West,3.5,-,N/A,,Clear,260,2013-01-04 20:35:00
3:55 PM,44.6,17.6,34,30.14,10.0,Calm,Calm,-,N/A,,Clear,0,2013-01-04 20:55:00
4:15 PM,42.8,17.6,36,30.13,10.0,Calm,Calm,-,N/A,,Clear,0,2013-01-04 21:15:00
4:35 PM,42.8,19.4,39,30.13,10.0,Calm,Calm,-,N/A,,Clear,0,2013-01-04 21:35:00
4:55 PM,41.0,21.2,45,30.13,10.0,Calm,Calm,-,N/A,,Clear,0,2013-01-04 21:55:00
5:15 PM,39.2,23.0,52,30.13,10.0,Calm,Calm,-,N/A,,Clear,0,2013-01-04 22:15:00
5:35 PM,37.4,24.8,60,30.14,10.0,NW,4.6,-,N/A,,Clear,310,2013-01-04 22:35:00
5:55 PM,37.4,23.0,56,30.15,10.0,Calm,Calm,-,N/A,,Clear,0,2013-01-04 22:55:00
6:15 PM,39.2,19.4,45,30.15,10.0,Calm,Calm,-,N/A,,Clear,0,2013-01-04 23:15:00
6:35 PM,35.6,21.2,56,30.16,10.0,West,3.5,-,N/A,,Clear,280,2013-01-04 23:35:00
6:55 PM,33.8,21.2,60,30.15,10.0,Calm,Calm,-,N/A,,Clear,0,2013-01-04 23:55:00
7:15 PM,32.0,21.2,64,30.17,10.0,Calm,Calm,-,N/A,,Clear,0,2013-01-05 00:15:00
7:35 PM,33.8,19.4,56,30.17,10.0,NW,4.6,-,N/A,,Clear,320,2013-01-05 00:35:00
7:55 PM,37.4,17.6,45,30.17,10.0,NW,4.6,-,N/A,,Clear,310,2013-01-05 00:55:00
8:15 PM,39.2,17.6,42,30.18,10.0,NW,9.2,-,N/A,,Clear,310,2013-01-05 01:15:00
8:35 PM,39.2,17.6,42,30.18,10.0,NW,4.6,-,N/A,,Clear,320,2013-01-05 01:35:00
8:55 PM,39.2,17.6,42,30.18,10.0,NW,8.1,-,N/A,,Clear,320,2013-01-05 01:55:00
9:15 PM,39.2,17.6,42,30.19,10.0,Calm,Calm,-,N/A,,Clear,0,2013-01-05 02:15:00
9:35 PM,35.6,17.6,48,30.19,10.0,Calm,Calm,-,N/A,,Clear,0,2013-01-05 02:35:00
9:55 PM,30.2,21.2,69,30.20,10.0,Calm,Calm,-,N/A,,Clear,0,2013-01-05 02:55:00
10:15 PM,28.4,19.4,69,30.19,10.0,Calm,Calm,-,N/A,,Clear,0,2013-01-05 03:15:00
10:35 PM,28.4,19.4,69,30.19,10.0,Calm,Calm,-,N/A,,Clear,0,2013-01-05 03:35:00
10:55 PM,26.6,19.4,74,30.19,10.0,Calm,Calm,-,N/A,,Clear,0,2013-01-05 03:55:00
11:15 PM,26.6,19.4,74,30.18,10.0,Calm,Calm,-,N/A,,Clear,0,2013-01-05 04:15:00
11:35 PM,24.8,21.2,86,30.19,10.0,Calm,Calm,-,N/A,,Clear,0,2013-01-05 04:35:00
11:55 PM,24.8,19.4,80,30.18,10.0,Calm,Calm,-,N/A,,Clear,0,2013-01-05 04:55:00